Weather History for West Palm Beach, FL

Change the Weather History Date:

Friday, January 6, 2012

  Actual Average Record
Temperature  
Mean Temperature 58 °F 66 °F  
Max Temperature 71 °F 74 °F 87 °F (1990)
Min Temperature 44 °F 57 °F 34 °F (2010)
Degree Days  
Heating Degree Days 7 3  
Month to date heating degree days 49 18  
Since 1 July heating degree days 60 89  
Cooling Degree Days 0 4  
Month to date cooling degree days 3 24  
Year to date cooling degree days 3 24  
Growing Degree Days 8 (Base 50)    
Moisture  
Dew Point 47 °F    
Average Humidity 71    
Maximum Humidity 93    
Minimum Humidity 49    
Precipitation  
Precipitation 0.00 in 0.11 in 1.12 in (1941)
Month to date precipitation T 0.66  
Year to date precipitation T 0.66  
Snow  
Snow 0.00 in - - ()
Month to date snowfall 0.0  
Since 1 July snowfall 0.0  
Snow Depth 0.00 in    
Sea Level Pressure  
Sea Level Pressure 30.19 in    
Wind  
Wind Speed 4 mph (West)    
Max Wind Speed 12 mph    
Max Gust Speed 23 mph    
Visibility 10 miles    
Events      
T = Trace of Precipitation, MM = Missing Value Source: NWS Daily Summary

Daily Weather History Graph

Daily Weather History Graph

Search for Another Location

Airport:

Trip Planner

Search our weather history database for the weather conditions in past years. The results will help you decide how hot, cold, wet, or windy it might be!

Date:

Astronomy

Jan. 06, 2012 Rise Set
Actual Time 7:10 AM EST 5:42 PM EST
Civil Twilight 6:44 AM EST 6:07 PM EST
Nautical Twilight 6:16 AM EST 6:36 PM EST
Astronomical Twilight 5:47 AM EST 7:04 PM EST
Moon 3:33 PM EST (1/6) 4:46 AM EST (1/6)
Length of Visible Light 11h 22m
Length of Day
10h 32m
Waxing Gibbous, 93% of the Moon is Illuminated
Jan 6
Waxing Gibbous
Jan 9
Full
Jan 16
Last Quarter
Jan 23
New
Jan 30
First Quarter

Hourly Weather History & Observations

Time (EST) Temp. Windchill Dew Point Humidity Pressure Visibility Wind Dir Wind Speed Gust Speed Precip Events Conditions
12:53 AM 46.9 °F - 41.0 °F 80% 30.20 in 10.0 mi WSW 3.5 mph - N/A   Clear
1:53 AM 46.9 °F - 41.0 °F 80% 30.20 in 10.0 mi Calm Calm - N/A   Clear
2:53 AM 48.0 °F - 42.1 °F 80% 30.19 in 10.0 mi WNW 3.5 mph - N/A   Clear
3:53 AM 48.0 °F - 42.1 °F 80% 30.19 in 10.0 mi Calm Calm - N/A   Clear
4:53 AM 46.9 °F - 42.1 °F 83% 30.19 in 10.0 mi Calm Calm - N/A   Clear
5:53 AM 46.0 °F 44.8 °F 42.1 °F 86% 30.21 in 10.0 mi WSW 3.5 mph - N/A   Clear
6:53 AM 45.0 °F 43.5 °F 41.0 °F 86% 30.21 in 10.0 mi NW 3.5 mph - N/A   Partly Cloudy
7:53 AM 46.9 °F - 44.1 °F 90% 30.22 in 10.0 mi WNW 3.5 mph - N/A   Partly Cloudy
8:53 AM 57.0 °F - 51.1 °F 81% 30.23 in 10.0 mi NNW 4.6 mph - N/A   Partly Cloudy
9:53 AM 63.0 °F - 51.1 °F 65% 30.25 in 10.0 mi NNW 6.9 mph - N/A   Partly Cloudy
10:53 AM 64.9 °F - 50.0 °F 58% 30.24 in 10.0 mi NW 4.6 mph - N/A   Partly Cloudy
11:53 AM 68.0 °F - 48.9 °F 50% 30.21 in 10.0 mi Variable 5.8 mph - N/A   Partly Cloudy
12:53 PM 68.0 °F - 48.9 °F 50% 30.19 in 10.0 mi Calm Calm - N/A   Partly Cloudy
1:53 PM 69.1 °F - 51.1 °F 53% 30.17 in 10.0 mi ESE 6.9 mph - N/A   Partly Cloudy
2:53 PM 70.0 °F - 52.0 °F 53% 30.15 in 10.0 mi East 10.4 mph - N/A   Partly Cloudy
3:53 PM 69.1 °F - 51.1 °F 53% 30.15 in 10.0 mi SE 5.8 mph - N/A   Partly Cloudy
4:53 PM 68.0 °F - 51.1 °F 55% 30.15 in 10.0 mi SE 10.4 mph - N/A   Partly Cloudy
5:53 PM 64.9 °F - 50.0 °F 58% 30.16 in 10.0 mi SE 5.8 mph - N/A   Partly Cloudy
6:53 PM 63.0 °F - 50.0 °F 63% 30.16 in 10.0 mi SSE 3.5 mph - N/A   Partly Cloudy
7:53 PM 60.1 °F - 48.9 °F 67% 30.17 in 10.0 mi Calm Calm - N/A   Partly Cloudy
8:53 PM 55.9 °F - 48.9 °F 77% 30.17 in 10.0 mi Calm Calm - N/A   Clear
9:53 PM 55.0 °F - 50.0 °F 83% 30.18 in 10.0 mi Calm Calm - N/A   Clear
10:53 PM 55.0 °F - 50.0 °F 83% 30.17 in 10.0 mi NW 3.5 mph - N/A   Clear
11:53 PM 54.0 °F - 51.1 °F 90% 30.17 in 10.0 mi Calm Calm - N/A   Partly Cloudy